| time (UTC) | temp C | wind direction | speed KPH | gust KPH | rain 1hr cm | rain 24hr cm | rain mn cm | humidity % | barometer mb |
| 20260506111554 | 6 | 307 | 0.0 | 9.7 | 0.00 | 3.53 | 1.04 | 97 | 1008.8 |
| 20260506110038 | 6 | 23 | 1.6 | 9.7 | 0.03 | 3.53 | 1.04 | 97 | 1008.2 |
| 20260506104542 | 6 | 330 | 6.4 | 14.5 | 0.03 | 3.53 | 1.04 | 97 | 1008.1 |
| 20260506103042 | 6 | 278 | 0.0 | 3.2 | 0.08 | 3.53 | 1.04 | 97 | 1007.8 |
| 20260506101534 | 6 | 64 | 0.0 | 3.2 | 0.15 | 3.53 | 1.04 | 97 | 1007.3 |
| 20260506100032 | 6 | 333 | 1.6 | 6.4 | 0.15 | 3.51 | 1.02 | 97 | 1007.9 |
| 20260506094531 | 6 | 1 | 0.0 | 6.4 | 0.18 | 3.51 | 1.02 | 97 | 1008.3 |
| 20260506093031 | 6 | 310 | 1.6 | 4.8 | 0.13 | 3.45 | 0.97 | 97 | 1008.4 |
| 20260506091530 | 6 | 308 | 0.0 | 6.4 | 0.10 | 3.38 | 0.89 | 97 | 1008.3 |
| 20260506090029 | 6 | 307 | 0.0 | 3.2 | 0.13 | 3.35 | 0.86 | 97 | 1007.9 |
| 20260506084606 | 6 | 5 | 0.0 | 3.2 | 0.15 | 3.33 | 0.84 | 97 | 1007.7 |
| 20260506083028 | 6 | 335 | 0.0 | 0.0 | 0.23 | 3.33 | 0.84 | 97 | 1008.0 |
| 20260506081537 | 6 | 300 | 1.6 | 8.0 | 0.23 | 3.28 | 0.79 | 97 | 1008.4 |
| 20260506073025 | 6 | 308 | 1.6 | 9.7 | 0.15 | 3.10 | 0.61 | 97 | 1007.7 |
| 20260506071526 | 6 | 295 | 1.6 | 8.0 | 0.15 | 3.05 | 0.56 | 97 | 1007.6 |
| 20260506061518 | 6 | 317 | 0.0 | 4.8 | 0.20 | 2.87 | 0.41 | 97 | 1007.7 |
| 20260506044506 | 7 | 335 | 3.2 | 9.7 | 0.15 | 2.59 | 0.10 | 97 | 1008.7 |
| 20260506043002 | 7 | 8 | 3.2 | 9.7 | 0.18 | 2.57 | 0.08 | 97 | 1008.7 |
| 20260506041608 | 7 | 309 | 1.6 | 4.8 | 0.18 | 2.54 | 0.05 | 97 | 1008.8 |
| 20260506040059 | 8 | 311 | 0.0 | 6.4 | 0.18 | 2.49 | 0.00 | 97 | 1008.9 |
| 20260506034557 | 8 | 323 | 0.0 | 8.0 | 0.23 | 2.44 | 2.44 | 97 | 1009.1 |
| 20260506033055 | 8 | 320 | 3.2 | 6.4 | 0.28 | 2.39 | 2.39 | 97 | 1009.1 |
| 20260506031555 | 8 | 275 | 0.0 | 3.2 | 0.36 | 2.36 | 2.36 | 97 | 1009.4 |
| 20260506030053 | 8 | 275 | 0.0 | 6.4 | 0.36 | 2.29 | 2.29 | 97 | 1009.4 |
| 20260506024552 | 8 | 246 | 0.0 | 3.2 | 0.41 | 2.21 | 2.21 | 97 | 1009.3 |
| 20260506023104 | 8 | 35 | 0.0 | 1.6 | 0.46 | 2.11 | 2.11 | 97 | 1008.9 |
| 20260506021609 | 8 | 34 | 0.0 | 3.2 | 0.51 | 2.01 | 2.01 | 97 | 1008.8 |
| 20260506020050 | 8 | 34 | 0.0 | 0.0 | 0.51 | 1.93 | 1.93 | 97 | 1008.8 |
| 20260506014549 | 8 | 34 | 0.0 | 3.2 | 0.43 | 1.78 | 1.78 | 97 | 1008.9 |
| 20260506013059 | 8 | 4 | 0.0 | 4.8 | 0.33 | 1.65 | 1.65 | 96 | 1008.8 |
| 20260506011608 | 8 | 23 | 0.0 | 8.0 | 0.18 | 1.50 | 1.50 | 96 | 1008.5 |
| 20260506010014 | 8 | 52 | 0.0 | 4.8 | 0.08 | 1.40 | 1.40 | 96 | 1008.3 |
| 20260506004513 | 8 | 53 | 0.0 | 3.2 | 0.13 | 1.35 | 1.35 | 96 | 1008.4 |
| 20260506003013 | 8 | 56 | 1.6 | 4.8 | 0.18 | 1.32 | 1.32 | 96 | 1008.3 |
| 20260506001510 | 8 | 55 | 0.0 | 4.8 | 0.33 | 1.32 | 1.32 | 96 | 1008.2 |
| 20260506000009 | 8 | 59 | 1.6 | 4.8 | 0.66 | 1.32 | 1.32 | 96 | 1008.5 |
| 20260505234509 | 8 | 348 | 1.6 | 4.8 | 0.61 | 1.22 | 1.22 | 96 | 1008.6 |
| 20260505233007 | 8 | 47 | 0.0 | 8.0 | 0.56 | 1.14 | 1.14 | 95 | 1008.4 |
| 20260505231503 | 9 | 17 | 9.7 | 22.5 | 0.36 | 0.94 | 0.94 | 95 | 1008.6 |
| 20260505230059 | 9 | 328 | 4.8 | 11.3 | 0.10 | 0.66 | 0.66 | 95 | 1008.3 |
| 20260505224603 | 10 | 16 | 3.2 | 9.7 | 0.05 | 0.61 | 0.61 | 95 | 1008.2 |
| 20260505223057 | 10 | 49 | 3.2 | 6.4 | 0.03 | 0.58 | 0.58 | 95 | 1008.3 |
| 20260505221555 | 10 | 41 | 1.6 | 6.4 | 0.23 | 0.58 | 0.58 | 94 | 1008.3 |
| 20260505220058 | 11 | 314 | 6.4 | 12.9 | 0.33 | 0.56 | 0.56 | 93 | 1008.4 |
| 20260505214554 | 13 | 285 | 4.8 | 11.3 | 0.36 | 0.56 | 0.56 | 95 | 1008.1 |
| 20260505213044 | 13 | 275 | 4.8 | 9.7 | 0.51 | 0.56 | 0.56 | 94 | 1008.1 |
| 20260505211544 | 13 | 263 | 6.4 | 11.3 | 0.28 | 0.30 | 0.30 | 94 | 1008.4 |
| 20260505210045 | 13 | 274 | 1.6 | 9.7 | 0.20 | 0.23 | 0.23 | 93 | 1007.8 |
| 20260505204541 | 13 | 328 | 6.4 | 11.3 | 0.18 | 0.20 | 0.20 | 92 | 1007.8 |
| 20260505203053 | 14 | 297 | 8.0 | 16.1 | 0.03 | 0.05 | 0.05 | 88 | 1007.9 |
| 20260505201541 | 15 | 310 | 3.2 | 9.7 | 0.00 | 0.03 | 0.03 | 85 | 1007.6 |
| 20260505200032 | 16 | 290 | 6.4 | 11.3 | 0.03 | 0.03 | 0.03 | 83 | 1007.8 |
| 20260505194531 | 16 | 278 | 6.4 | 11.3 | 0.03 | 0.03 | 0.03 | 81 | 1007.8 |
| 20260505193033 | 16 | 263 | 3.2 | 6.4 | 0.03 | 0.03 | 0.03 | 80 | 1007.7 |
| 20260505191529 | 16 | 212 | 0.0 | 11.3 | 0.03 | 0.03 | 0.03 | 78 | 1008.1 |
| 20260505190033 | 17 | 276 | 1.6 | 12.9 | 0.00 | 0.00 | 0.00 | 72 | 1008.2 |
| 20260505184535 | 17 | 252 | 3.2 | 11.3 | 0.00 | 0.00 | 0.00 | 70 | 1008.2 |
| 20260505183028 | 17 | 233 | 1.6 | 14.5 | 0.00 | 0.00 | 0.00 | 68 | 1008.2 |
| 20260505181533 | 17 | 216 | 4.8 | 25.7 | 0.00 | 0.00 | 0.00 | 67 | 1008.1 |
| 20260505180025 | 18 | 271 | 9.7 | 19.3 | 0.00 | 0.00 | 0.00 | 67 | 1008.2 |
| 20260505174532 | 18 | 213 | 4.8 | 12.9 | 0.00 | 0.00 | 0.00 | 66 | 1008.0 |
| 20260505173022 | 18 | 238 | 8.0 | 25.7 | 0.00 | 0.00 | 0.00 | 65 | 1007.9 |
| 20260505171521 | 19 | 256 | 9.7 | 22.5 | 0.00 | 0.00 | 0.00 | 63 | 1007.8 |
| 20260505170021 | 18 | 242 | 9.7 | 27.4 | 0.00 | 0.00 | 0.00 | 62 | 1007.6 |
| 20260505164520 | 19 | 271 | 14.5 | 27.4 | 0.00 | 0.00 | 0.00 | 60 | 1007.6 |
| 20260505163021 | 20 | 214 | 11.3 | 20.9 | 0.00 | 0.00 | 0.00 | 59 | 1007.5 |
| 20260505161518 | 20 | 210 | 6.4 | 22.5 | 0.00 | 0.00 | 0.00 | 59 | 1007.5 |
| 20260505153011 | 19 | 257 | 6.4 | 20.9 | 0.00 | 0.00 | 0.00 | 62 | 1006.8 |
| 20260505151508 | 18 | 253 | 8.0 | 17.7 | 0.00 | 0.00 | 0.00 | 64 | 1007.1 |
| 20260505140114 | 17 | 199 | 4.8 | 20.9 | 0.00 | 0.00 | 0.00 | 71 | 1006.7 |
| 20260505124554 | 15 | 199 | 1.6 | 16.1 | 0.00 | 0.00 | 0.00 | 78 | 1006.6 |
| 20260505123051 | 15 | 208 | 6.4 | 12.9 | 0.00 | 0.00 | 0.00 | 77 | 1006.5 |
| 20260505121608 | 15 | 203 | 8.0 | 19.3 | 0.00 | 0.00 | 0.00 | 76 | 1006.5 |
| 20260505120048 | 15 | 167 | 1.6 | 11.3 | 0.00 | 0.00 | 0.00 | 75 | 1005.9 |
| 20260505114546 | 15 | 204 | 0.0 | 16.1 | 0.00 | 0.00 | 0.00 | 75 | 1006.0 |
| 20260505113042 | 16 | 227 | 6.4 | 22.5 | 0.00 | 0.00 | 0.00 | 70 | 1006.1 |